Location: Ottawa
(45.4170°N, 75.7000°W)
Time: 23:51:31
(UTC-04:00)

ISS - Pass Details

Date: 20 May 2021
Orbit: 417 x 422 km, 51.6° (Epoch: 13 June)

Event Time Altitude Azimuth Distance (km) Brightness Sun altitude
Rises 01:32:12 0° 299° (WNW) 2,371 0.3 -24.1°
Reaches altitude 10° 01:34:18 10° 300° (WNW) 1,506 -0.7 -24.1°
Enters shadow 01:34:51 14° 300° (WNW) 1,282 -1.1 -24.1°
